Location: *
(53.4003°S, 165.3236°W)
Time: 01:39:34
(UTC+00:00)

MSX - Pass Details

Date: 11 December 2023
Orbit: 894 x 906 km, 99.0° (Epoch: 24 February)

Event Time Altitude Azimuth Distance (km) Brightness Sun altitude
Exits shadow 12:34:15 13° 346° (NNW) 2,352 5.4 -10.6°
Maximum altitude 12:39:04 43° 278° (W) 1,256 4.4 -10.3°
Drops below altitude 10° 12:44:35 10° 206° (SSW) 2,605 6.8 -10.0°
Sets 12:47:09 0° 199° (SSW) 3,552 7.7 -9.8°
